Regional Weather Roundup
Issued by NWS

Home | Current Version | Previous Version | Graphics & Text | Print | Product List | Glossary On
Versions: 1 2 3 4 5 6 7 8 9 10 11 12 13 14 15 16 17 18 19 20 21 22 23 24 25 26 27 28 29 30 31 32 33 34 35 36 37 38 39 40 41 42 43 44 45 46 47 48 49 50
000
ASUS45 KCYS 301410
RWRWY

WYOMING REGIONAL WEATHER ROUNDUP
NATIONAL WEATHER SERVICE CHEYENNE WY
800 AM MDT WED JUL 30 2014

NOTE:  "FAIR" INDICATES FEW OR NO CLOUDS BELOW 12,000 FEET
WITH NO SIGNIFICANT WEATHER AND/OR OBSTRUCTIONS TO VISIBILITY.

WYZ001-301500-
YELLOWSTONE NATIONAL PARK

CITY           SKY/WX    TMP DP  RH WIND       PRES   REMARKS
LK YELLOWSTONE   N/A     46  45  96 CALM      30.49R
W YELLOWSTONE  NOT AVBL

$$
WYZ002>013-054>058-071-098>099-301500-
NORTHERN WYOMING

CITY           SKY/WX    TMP DP  RH WIND       PRES   REMARKS
JACKSON        NOT AVBL
CODY           NOT AVBL
GREYBULL       PTSUNNY   60  52  74 CALM      30.28S
WORLAND        PTSUNNY   59  56  89 CALM      30.30R
SHERIDAN       MOSUNNY   61  50  67 CALM      30.28R
BUFFALO        MOSUNNY   64  43  46 N6        30.32R
GILLETTE       MOSUNNY   64  54  69 W7        30.27S
HULETT         FAIR      63  54  72 MISG      30.29
NEWCASTLE      FAIR      61  52  72 CALM      30.29

$$
WYZ014>020-022>026-101>103-301500-
CENTRAL WYOMING

CITY           SKY/WX    TMP DP  RH WIND       PRES   REMARKS
BIG PINEY      LGT RAIN  56  53  90 N3        30.39R
PINEDALE       CLOUDY    52  50  93 W5        30.40R
DUBOIS         FAIR      46  43  87 NW8       30.44R
LANDER         CLOUDY    59  56  89 NW3       30.35S
RIVERTON       PTSUNNY   60  53  77 CALM      30.36R
CASPER         CLOUDY    56  53  90 CALM      30.34S
DOUGLAS        CLOUDY    57  54  89 NW3       30.34R

$$
WYZ021-027>030-104>119-301500-
SOUTHERN WYOMING

CITY           SKY/WX    TMP DP  RH WIND       PRES   REMARKS
EVANSTON       CLOUDY    54  53  97 E10       30.35S FOG
KEMMERER       RAIN     N/A N/A N/A NE6       30.40S
FORT BRIDGER   CLOUDY    55  55 100 E12G17    30.39S
ROCK SPRINGS   CLOUDY    57  52  83 NE15      30.36S
DIXON          CLOUDY    58  56  91 CALM      30.33S
RAWLINS        LGT RAIN  54  52  93 NE14      30.37R
SARATOGA       DRIZZLE   54  54 100 W3        30.36S
LARAMIE        LGT RAIN  54  51  90 CALM      30.39R
CHEYENNE       LGT RAIN  57  54  89 CALM      30.35S
TORRINGTON     CLOUDY    62  57  83 N6        30.28R
PINE BLUFFS    DRIZZLE   59  59 100 NE3       30.33R

$$


USA.gov is the U.S. government's official web portal to all federal, state and local government web resources and services.